sat.trackr.live / text

‹ back to catalog

STARLINK-1640

NORAD 46173 · 2020-057BJ

PAYLOAD ACTIVE UNKNOWN

§ Identity

Operator
Country
US
Launch date
2020-08-18
Launch site
AFETR
Launch vehicle
Mass (kg)
RCS (m²)

Purposes: comms

External: N2YO · Heavens-Above · Gunter

§ Orbital elements

Epoch: 2026-05-25T02:35:44.183328Z

Period
91.78 min
Inclination
53.0430°
Eccentricity
0.0002074
Mean motion
15.68902247 rev/d
Perigee alt
360.6 km
Apogee alt
363.4 km
Semi-major
6,740.2 km
B*
7.8074e-4
RAAN
285.7283°
Arg perigee
1.2282°
Mean anomaly
358.8739°
Rev number
31,825

§ Raw data

STARLINK-16401 46173U 20057BJ  26145.10815027  .00091933  00000+0  78074-3 0  99902 46173  53.0430 285.7283 0002074   1.2282 358.8739 15.68902247318257

JSON: /api/v1/satellites/46173 · /tle

For live sub-satellite position, see the globe view (requires WebGL).

§ Visibility from observer

Set your observer location to see the next 7 days of passes ≥ 10°. The values pass through the URL so the page stays shareable.

No JS? Fill the form by hand. The geolocation button needs JavaScript.